Regional Weather Roundup
Issued by NWS

Home | Current Version | Previous Version | Graphics & Text | Print | Product List | Glossary On
Versions: 1 2 3 4 5 6 7 8 9 10 11 12 13 14 15 16 17 18 19 20 21 22 23 24 25 26 27 28 29 30 31 32 33 34 35 36 37 38 39 40 41 42 43 44 45 46 47 48 49 50
000
ASUS43 KTOP 030259
RWRKS

WEATHER ROUNDUP FOR KANSAS
NATIONAL WEATHER SERVICE GOODLAND KS
1000 PM CDT WED SEP 02 2015

NOTE:  "FAIR" INDICATES FEW OR NO CLOUDS BELOW 12,000 FEET WITH NO
SIGNIFICANT WEATHER AND/OR OBSTRUCTIONS TO VISIBILITY.

KSZ001>006-013>018-027>032-041>047-030400-
NORTHWEST KANSAS

CITY           SKY/WX    TMP DP  RH WIND       PRES   REMARKS
GOODLAND       PTCLDY    72  53  51 W6        29.89R
HAYS           CLEAR     88  55  33 S17G23    29.85R
HILL CITY      CLEAR     88  56  33 S10       29.83R
RUSSELL        CLEAR     86  59  39 S17       29.84R
$$

KSZ061>065-074>080-084>089-030400-
SOUTHWEST KANSAS

CITY           SKY/WX    TMP DP  RH WIND       PRES   REMARKS
DODGE CITY     MOCLDY    82  55  39 S16       29.91R
ELKHART          N/A     74  56  53 S9          N/A
GARDEN CITY    MOCLDY    78  58  49 S12       29.90R
GREAT BEND     PTCLDY    84  59  42 S16       29.87R
LIBERAL        MOCLDY    81  54  39 S10       29.94R
$$

KSZ066>073-081>083-090>101-030400-
SOUTHEAST KANSAS

CITY           SKY/WX    TMP DP  RH WIND       PRES   REMARKS
CHANUTE        CLEAR     76  70  82 S8        29.97R
COFFEYVILLE    CLEAR     76  69  79 S8        29.96R
HUTCHINSON     CLEAR     82  62  50 S16       29.90R
NEWTON         CLEAR     79  63  57 S12       29.95R
PARSONS        CLEAR     76  70  82 SE5       29.97R
WICHITA INTL   PTCLDY    80  66  62 S14       29.92R
WICHITA JABRA  CLEAR     79  67  66 S14       29.93R
WICHITA MCCONL CLEAR     80  66  64 SE14      29.93R
WINFIELD       CLEAR     80  67  64 SE12      29.95R
$$

KSZ007>012-019>026-033>040-048>060-102>105-030400-
NORTHEAST KANSAS

CITY           SKY/WX    TMP DP  RH WIND       PRES   REMARKS
CONCORDIA      CLEAR     82  65  56 S17       29.86R
EMPORIA        CLEAR     77  67  71 S10       29.94R
LAWRENCE       CLEAR     74  69  85 SE7       29.94R
MANHATTAN      CLEAR     82  67  60 S9        29.89R
OLATHE IND     CLEAR     74  69  85 S6        29.97R
OLATHE EXE     CLEAR     75  69  81 S6        29.96R
SALINA         CLEAR     83  65  54 S15       29.87R
TOPEKA BILLARD CLEAR     79  69  71 SE9       29.93R
TOPEKA FORBES  CLEAR     78  69  73 SE8       29.94R
$$



USA.gov is the U.S. government's official web portal to all federal, state and local government web resources and services.